Time,TemperatureF,DewpointF,PressureIn,WindDirection,WindDirectionDegrees,WindSpeedMPH,WindSpeedGustMPH,Humidity,HourlyPrecipIn,Conditions,Clouds,dailyrainin,SolarRadiationWatts/m^2,SoftwareType,DateUTC
2013-09-29 00:02:00,-999.0,-99.9,-100.00,South,171,0.0,7.0,-999,-99.99,,,-99.99,0.000000,,2013-09-29 04:02:00,
2013-09-29 00:44:00,49.0,47.0,-100.00,WSW,243,1.0,4.0,92,0.00,,,0.01,0.000000,,2013-09-29 04:44:00,
2013-09-29 00:54:00,49.0,47.0,-100.00,WSW,243,1.0,4.0,92,0.00,,,0.01,0.000000,,2013-09-29 04:54:00,
2013-09-29 01:03:00,49.0,47.0,-100.00,WSW,243,1.0,4.0,92,0.00,,,0.01,0.000000,,2013-09-29 05:03:00,
2013-09-29 01:43:00,49.0,48.0,-100.00,SSE,160,2.0,7.0,96,0.00,,,0.01,0.000000,,2013-09-29 05:43:00,
2013-09-29 01:53:00,49.0,48.0,-100.00,SSE,160,2.0,7.0,96,0.00,,,0.01,0.000000,,2013-09-29 05:53:00,
2013-09-29 02:03:00,49.0,48.0,-100.00,SSE,160,2.0,7.0,96,0.00,,,0.01,0.000000,,2013-09-29 06:03:00,
2013-09-29 02:42:00,48.0,47.0,-100.00,South,183,1.0,3.0,96,0.00,,,0.01,0.000000,,2013-09-29 06:42:00,
2013-09-29 02:52:00,48.0,47.0,-100.00,South,183,1.0,3.0,96,0.00,,,0.01,0.000000,,2013-09-29 06:52:00,
2013-09-29 03:02:00,48.0,47.0,-100.00,South,183,1.0,3.0,96,0.00,,,0.01,0.000000,,2013-09-29 07:02:00,
2013-09-29 03:43:00,47.0,46.0,-100.00,SSW,202,1.0,3.0,97,0.00,,,0.01,0.000000,,2013-09-29 07:43:00,
2013-09-29 03:52:00,47.0,46.0,-100.00,SSW,202,1.0,3.0,97,0.00,,,0.01,0.000000,,2013-09-29 07:52:00,
2013-09-29 04:02:00,47.0,46.0,-100.00,SSW,202,1.0,3.0,97,0.00,,,0.01,0.000000,,2013-09-29 08:02:00,
2013-09-29 04:42:00,48.0,47.0,-100.00,NNE,13,1.0,6.0,95,0.00,,,0.01,0.000000,,2013-09-29 08:42:00,
2013-09-29 04:52:00,48.0,47.0,-100.00,NNE,13,1.0,6.0,95,0.00,,,0.01,0.000000,,2013-09-29 08:52:00,
2013-09-29 05:02:00,48.0,47.0,-100.00,NNE,13,1.0,6.0,95,0.00,,,0.01,0.000000,,2013-09-29 09:02:00,
2013-09-29 05:43:00,49.0,47.0,-100.00,NNE,32,1.0,3.0,93,0.00,,,0.01,0.000000,,2013-09-29 09:43:00,
2013-09-29 05:54:00,49.0,47.0,-100.00,NNE,32,1.0,3.0,93,0.00,,,0.01,0.000000,,2013-09-29 09:54:00,
2013-09-29 06:03:00,49.0,47.0,-100.00,NNE,32,1.0,3.0,93,0.00,,,0.01,0.000000,,2013-09-29 10:03:00,
2013-09-29 06:43:00,50.0,47.0,-100.00,SSE,148,1.0,5.0,90,0.00,,,0.01,0.000000,,2013-09-29 10:43:00,
2013-09-29 06:53:00,50.0,47.0,-100.00,SSE,148,1.0,5.0,90,0.00,,,0.01,0.000000,,2013-09-29 10:53:00,
2013-09-29 07:03:00,50.0,47.0,-100.00,SSE,148,1.0,5.0,90,0.00,,,0.01,0.000000,,2013-09-29 11:03:00,
2013-09-29 07:42:00,50.0,47.0,-100.00,NE,41,1.0,4.0,90,0.00,,,0.01,0.000000,,2013-09-29 11:42:00,
2013-09-29 07:52:00,50.0,47.0,-100.00,NE,41,1.0,4.0,90,0.00,,,0.01,0.000000,,2013-09-29 11:52:00,
2013-09-29 08:01:00,50.0,47.0,-100.00,NE,41,1.0,4.0,90,0.00,,,0.01,0.000000,,2013-09-29 12:01:00,
2013-09-29 08:42:00,51.0,48.0,-100.00,SSE,159,1.0,4.0,90,0.00,,,0.00,22.000000,,2013-09-29 12:42:00,
2013-09-29 08:52:00,51.0,48.0,-100.00,SSE,159,1.0,4.0,90,0.00,,,0.00,22.000000,,2013-09-29 12:52:00,
2013-09-29 09:02:00,51.0,48.0,-100.00,SSE,159,1.0,4.0,90,0.00,,,0.00,22.000000,,2013-09-29 13:02:00,
2013-09-29 09:42:00,54.0,48.0,-100.00,South,187,4.0,6.0,81,0.00,,,0.00,107.000000,,2013-09-29 13:42:00,
2013-09-29 09:53:00,54.0,48.0,-100.00,South,187,4.0,6.0,81,0.00,,,0.00,107.000000,,2013-09-29 13:53:00,
2013-09-29 10:02:00,54.0,48.0,-100.00,South,187,4.0,6.0,81,0.00,,,0.00,107.000000,,2013-09-29 14:02:00,
2013-09-29 10:43:00,58.0,49.0,-100.00,South,185,4.0,10.0,73,0.00,,,0.00,288.000000,,2013-09-29 14:43:00,
2013-09-29 10:52:00,58.0,49.0,-100.00,South,185,4.0,10.0,73,0.00,,,0.00,288.000000,,2013-09-29 14:52:00,
2013-09-29 11:02:00,58.0,49.0,-100.00,South,185,4.0,10.0,73,0.00,,,0.00,288.000000,,2013-09-29 15:02:00,
2013-09-29 11:45:00,65.0,51.0,-100.00,South,172,4.0,10.0,61,0.00,,,0.00,507.000000,,2013-09-29 15:45:00,
2013-09-29 11:55:00,65.0,51.0,-100.00,South,172,4.0,10.0,61,0.00,,,0.00,507.000000,,2013-09-29 15:55:00,
2013-09-29 12:05:00,65.0,51.0,-100.00,South,172,4.0,10.0,61,0.00,,,0.00,507.000000,,2013-09-29 16:05:00,
2013-09-29 12:44:00,68.0,52.0,-100.00,South,190,6.0,12.0,57,0.00,,,0.00,757.000000,,2013-09-29 16:44:00,
2013-09-29 12:54:00,68.0,52.0,-100.00,South,190,6.0,12.0,57,0.00,,,0.00,757.000000,,2013-09-29 16:54:00,
2013-09-29 13:03:00,68.0,52.0,-100.00,South,190,6.0,12.0,57,0.00,,,0.00,757.000000,,2013-09-29 17:03:00,
2013-09-29 13:43:00,72.0,53.0,-100.00,SSW,208,5.0,14.0,52,0.00,,,0.00,833.000000,,2013-09-29 17:43:00,
2013-09-29 13:52:00,72.0,53.0,-100.00,SSW,208,5.0,14.0,52,0.00,,,0.00,833.000000,,2013-09-29 17:52:00,
2013-09-29 14:02:00,72.0,53.0,-100.00,SSW,208,5.0,14.0,52,0.00,,,0.00,833.000000,,2013-09-29 18:02:00,
2013-09-29 14:42:00,75.0,53.0,-100.00,South,188,5.0,11.0,47,0.00,,,0.00,775.000000,,2013-09-29 18:42:00,
2013-09-29 14:52:00,75.0,53.0,-100.00,South,188,5.0,11.0,47,0.00,,,0.00,775.000000,,2013-09-29 18:52:00,
2013-09-29 15:02:00,75.0,53.0,-100.00,South,188,5.0,11.0,47,0.00,,,0.00,775.000000,,2013-09-29 19:02:00,
2013-09-29 15:42:00,73.0,54.0,-100.00,WSW,251,3.0,11.0,52,0.00,,,0.00,639.000000,,2013-09-29 19:42:00,
2013-09-29 15:52:00,73.0,54.0,-100.00,WSW,251,3.0,11.0,52,0.00,,,0.00,639.000000,,2013-09-29 19:52:00,
2013-09-29 16:02:00,73.0,54.0,-100.00,WSW,251,3.0,11.0,52,0.00,,,0.00,639.000000,,2013-09-29 20:02:00,
2013-09-29 16:43:00,74.0,54.0,-100.00,SSW,205,3.0,7.0,50,0.00,,,0.00,492.000000,,2013-09-29 20:43:00,
2013-09-29 16:52:00,74.0,54.0,-100.00,SSW,205,3.0,7.0,50,0.00,,,0.00,492.000000,,2013-09-29 20:52:00,
2013-09-29 17:02:00,74.0,54.0,-100.00,SSW,205,3.0,7.0,50,0.00,,,0.00,492.000000,,2013-09-29 21:02:00,
2013-09-29 17:44:00,70.0,54.0,-100.00,South,191,3.0,9.0,56,0.00,,,0.00,248.000000,,2013-09-29 21:44:00,
2013-09-29 17:55:00,70.0,54.0,-100.00,South,191,3.0,9.0,56,0.00,,,0.00,248.000000,,2013-09-29 21:55:00,
2013-09-29 18:04:00,70.0,54.0,-100.00,South,191,3.0,9.0,56,0.00,,,0.00,248.000000,,2013-09-29 22:04:00,
2013-09-29 18:43:00,67.0,56.0,-100.00,SSE,158,1.0,5.0,68,0.00,,,0.00,106.000000,,2013-09-29 22:43:00,
2013-09-29 18:53:00,67.0,56.0,-100.00,SSE,158,1.0,5.0,68,0.00,,,0.00,106.000000,,2013-09-29 22:53:00,
2013-09-29 19:03:00,67.0,56.0,-100.00,SSE,158,1.0,5.0,68,0.00,,,0.00,106.000000,,2013-09-29 23:03:00,
2013-09-29 19:43:00,62.0,56.0,-100.00,ENE,72,0.0,2.0,80,0.00,,,0.00,19.000000,,2013-09-29 23:43:00,
2013-09-29 19:53:00,62.0,56.0,-100.00,ENE,72,0.0,2.0,80,0.00,,,0.00,19.000000,,2013-09-29 23:53:00,
2013-09-29 20:02:00,62.0,56.0,-100.00,ENE,72,0.0,2.0,80,0.00,,,0.00,19.000000,,2013-09-30 00:02:00,
2013-09-29 20:42:00,60.0,56.0,-100.00,NE,43,0.0,0.0,88,0.00,,,0.00,0.000000,,2013-09-30 00:42:00,
2013-09-29 20:52:00,60.0,56.0,-100.00,NE,43,0.0,0.0,88,0.00,,,0.00,0.000000,,2013-09-30 00:52:00,
2013-09-29 21:02:00,60.0,56.0,-100.00,NE,43,0.0,0.0,88,0.00,,,0.00,0.000000,,2013-09-30 01:02:00,
2013-09-29 21:42:00,57.0,55.0,-100.00,West,272,0.0,0.0,93,0.00,,,0.00,0.000000,,2013-09-30 01:42:00,
2013-09-29 21:52:00,57.0,55.0,-100.00,West,272,0.0,0.0,93,0.00,,,0.00,0.000000,,2013-09-30 01:52:00,
2013-09-29 22:02:00,57.0,55.0,-100.00,West,272,0.0,0.0,93,0.00,,,0.00,0.000000,,2013-09-30 02:02:00,
2013-09-29 22:42:00,58.0,55.0,-100.00,North,5,0.0,4.0,90,0.00,,,0.00,0.000000,,2013-09-30 02:42:00,
2013-09-29 22:52:00,58.0,55.0,-100.00,North,5,0.0,4.0,90,0.00,,,0.00,0.000000,,2013-09-30 02:52:00,
2013-09-29 23:02:00,58.0,55.0,-100.00,North,5,0.0,4.0,90,0.00,,,0.00,0.000000,,2013-09-30 03:02:00,
2013-09-29 23:45:00,57.0,53.0,-100.00,East,89,0.0,2.0,85,0.00,,,0.00,0.000000,,2013-09-30 03:45:00,
2013-09-29 23:55:00,57.0,53.0,-100.00,East,89,0.0,2.0,85,0.00,,,0.00,0.000000,,2013-09-30 03:55:00,